TimePST,TemperatureF,Dew PointF,Humidity,Sea Level PressureIn,VisibilityMPH,Wind Direction,Wind SpeedMPH,Gust SpeedMPH,PrecipitationIn,Events,Conditions,WindDirDegrees,DateUTC
12:53 AM,55.0,48.9,80,30.12,6.0,Calm,Calm,-,N/A,,Haze,0,2014-01-26 08:53:00
1:53 AM,54.0,45.0,72,30.11,8.0,Calm,Calm,-,N/A,,Clear,0,2014-01-26 09:53:00
2:53 AM,53.1,42.1,66,30.11,10.0,Calm,Calm,-,N/A,,Clear,0,2014-01-26 10:53:00
3:53 AM,51.1,44.1,77,30.10,9.0,Calm,Calm,-,N/A,,Clear,0,2014-01-26 11:53:00
4:53 AM,52.0,41.0,66,30.10,10.0,Calm,Calm,-,N/A,,Clear,0,2014-01-26 12:53:00
5:04 AM,51.8,41.0,67,30.10,10.0,Calm,Calm,-,N/A,,Partly Cloudy,0,2014-01-26 13:04:00
5:53 AM,51.1,39.9,66,30.10,10.0,Calm,Calm,-,N/A,,Clear,0,2014-01-26 13:53:00
6:53 AM,52.0,43.0,71,30.12,10.0,Calm,Calm,-,N/A,,Clear,0,2014-01-26 14:53:00
7:53 AM,55.9,42.1,60,30.13,10.0,Calm,Calm,-,N/A,,Clear,0,2014-01-26 15:53:00
8:53 AM,59.0,43.0,55,30.13,9.0,Calm,Calm,-,N/A,,Clear,0,2014-01-26 16:53:00
9:53 AM,63.0,39.9,43,30.14,10.0,Calm,Calm,-,N/A,,Clear,0,2014-01-26 17:53:00
10:53 AM,66.0,45.0,47,30.12,9.0,SSW,3.5,-,N/A,,Scattered Clouds,200,2014-01-26 18:53:00
11:53 AM,68.0,46.9,47,30.09,8.0,SW,3.5,-,N/A,,Mostly Cloudy,230,2014-01-26 19:53:00
12:53 PM,68.0,46.9,47,30.06,10.0,South,3.5,-,N/A,,Mostly Cloudy,190,2014-01-26 20:53:00
1:53 PM,68.0,48.0,49,30.04,8.0,SSW,5.8,-,N/A,,Overcast,210,2014-01-26 21:53:00
2:53 PM,66.9,48.0,51,30.02,8.0,SSW,6.9,-,N/A,,Overcast,210,2014-01-26 22:53:00
3:53 PM,66.0,53.1,63,30.02,9.0,SSW,6.9,-,N/A,,Overcast,210,2014-01-26 23:53:00
4:53 PM,66.0,46.9,50,30.01,10.0,West,3.5,-,N/A,,Overcast,280,2014-01-27 00:53:00
5:53 PM,64.0,46.9,54,30.03,10.0,West,4.6,-,N/A,,Clear,280,2014-01-27 01:53:00
6:53 PM,62.1,48.9,62,30.03,10.0,Calm,Calm,-,N/A,,Scattered Clouds,0,2014-01-27 02:53:00
7:53 PM,60.1,48.9,67,30.03,10.0,Calm,Calm,-,N/A,,Clear,0,2014-01-27 03:53:00
8:53 PM,57.9,48.9,72,30.04,9.0,Calm,Calm,-,N/A,,Clear,0,2014-01-27 04:53:00
9:53 PM,55.9,48.9,77,30.05,9.0,Calm,Calm,-,N/A,,Clear,0,2014-01-27 05:53:00
10:53 PM,57.0,50.0,77,30.06,8.0,Calm,Calm,-,N/A,,Overcast,0,2014-01-27 06:53:00
11:53 PM,57.9,50.0,75,30.07,9.0,Calm,Calm,-,N/A,,Overcast,0,2014-01-27 07:53:00